GEFSMA_con_probscp_066.txt.gz
Probability
77 75 75 68 54 46 42 33 24 18 16 12 7 4 5 4 2 3 10 17 16 11 6 4 5 4 6 9 13 13 11 10 11 12 11 8 6 4 2 0 0 0 0
74 73 73 67 55 48 45 38 27 20 17 12 7 4 4 4 2 1 5 11 13 10 7 5 7 8 9 11 13 13 11 11 12 12 11 9 8 6 3 1 0 0 0
65 65 63 60 54 50 47 39 29 23 19 13 8 6 7 6 3 1 2 6 10 9 8 8 9 10 10 9 10 12 11 11 12 12 11 11 10 8 6 3 1 0 0
52 52 51 50 49 48 42 33 25 20 17 13 9 8 10 10 7 3 2 5 9 9 9 10 10 8 6 5 7 10 11 10 10 11 12 14 12 9 6 5 3 1 1
39 41 42 41 41 39 34 25 19 15 13 10 8 7 10 11 9 5 3 5 8 9 9 10 8 5 3 4 6 9 11 12 12 14 16 18 15 9 5 3 3 3 1
32 35 35 33 31 31 27 21 14 10 8 5 4 5 7 7 7 6 4 5 7 7 8 8 7 5 4 5 6 8 12 17 19 20 22 21 18 12 6 3 3 2 1
27 28 27 24 23 24 22 16 11 7 6 4 3 4 4 4 4 5 6 6 6 5 6 6 6 5 5 5 4 5 12 18 20 21 22 22 19 15 12 8 5 2 1
20 20 19 17 17 18 16 13 10 7 6 5 5 4 3 2 2 4 6 7 6 5 4 3 4 4 4 4 2 2 8 13 15 15 16 17 16 15 16 13 8 4 2
12 14 14 14 14 13 11 9 8 6 6 5 5 6 5 3 2 4 5 6 5 4 2 1 2 2 3 3 2 2 3 5 6 7 8 10 11 13 15 16 13 10 7
7 9 12 14 15 13 9 7 5 5 5 4 5 6 5 3 2 3 3 3 3 2 1 0 1 2 2 3 3 2 1 1 2 3 4 7 10 11 14 17 18 18 16
4 5 9 14 17 16 14 13 11 10 8 7 6 7 5 3 1 1 1 1 1 0 0 0 0 1 2 2 2 2 1 0 1 1 3 6 10 12 14 17 21 22 21
2 3 6 11 16 18 21 23 21 18 16 15 14 11 8 4 2 0 0 0 0 0 0 0 0 0 1 1 1 1 0 0 0 1 2 4 9 11 12 14 19 22 22
1 1 4 7 11 14 19 23 25 25 25 25 25 21 17 12 7 4 2 0 0 0 0 0 0 0 0 0 0 0 0 0 0 0 1 2 4 6 6 9 14 18 20
2 2 2 4 6 8 11 16 21 25 29 31 31 31 29 23 17 12 8 4 2 1 0 1 1 1 1 1 1 1 1 0 0 0 0 0 1 1 2 4 7 9 11
3 3 1 2 3 4 5 8 13 18 25 29 31 34 35 31 25 22 17 12 8 5 3 3 4 4 3 3 1 2 1 0 0 0 0 0 0 0 0 1 2 3 3
3 2 1 0 1 2 2 3 5 9 13 19 24 27 31 33 31 29 26 23 19 13 8 8 8 7 5 3 1 1 1 0 0 0 0 0 0 0 0 0 0 0 0
3 2 1 0 0 0 1 1 1 3 5 9 12 14 19 25 30 32 32 32 30 24 16 13 13 12 8 3 1 1 0 0 0 0 0 0 0 0 0 0 0 0 0
3 2 1 0 0 0 0 0 0 1 1 3 4 5 7 12 19 25 30 33 34 29 23 20 18 16 12 7 3 1 0 0 0 0 0 0 0 0 0 0 0 0 0
2 1 0 0 1 1 0 0 0 0 0 1 1 2 3 5 9 14 20 25 27 26 25 23 21 21 18 10 3 1 0 0 0 0 0 0 0 0 0 0 0 0 0
1 0 0 1 2 2 1 0 0 0 0 0 0 1 1 2 4 7 11 15 17 19 22 22 22 25 22 13 4 0 0 0 0 0 0 0 0 0 0 0 0 0 0
0 0 0 1 2 2 1 0 0 0 0 0 0 0 0 1 2 3 5 7 8 10 13 17 20 23 23 16 6 1 0 0 0 0 0 0 0 0 0 0 0 0 0
0 0 0 0 1 1 1 0 0 0 0 0 0 0 0 0 1 1 1 1 2 3 6 11 16 20 22 19 10 3 1 0 0 0 0 0 0 0 0 0 0 0 0
1 1 1 0 0 0 0 0 0 0 0 0 0 0 0 0 0 0 0 0 0 0 3 8 12 17 22 22 16 8 4 2 1 0 0 0 0 0 0 0 0 0 0
3 3 2 1 0 0 0 0 0 0 0 0 0 0 0 0 0 0 0 0 0 0 1 3 7 10 15 19 17 14 9 5 2 0 0 0 0 0 0 0 0 0 0
3 3 2 1 0 0 0 0 0 0 0 0 0 0 0 0 0 0 0 0 0 0 0 0 1 3 5 8 11 13 11 7 2 0 0 0 0 0 0 0 0 0 0
2 1 1 0 0 0 0 0 0 0 0 0 0 0 0 0 0 0 0 0 0 0 0 0 0 0 0 1 4 8 9 6 2 0 0 0 0 0 0 0 0 0 0

GEFSMA_con_probscp_072.txt.gz
Probability
92 89 88 89 89 88 81 72 68 66 57 42 27 19 19 19 14 14 27 42 51 51 48 39 26 15 9 6 4 4 4 3 2 1 0 0 1 2 3 2 1 0 0
91 90 89 88 87 84 79 72 68 65 59 49 34 21 18 18 16 19 29 40 45 42 39 34 25 16 10 6 5 5 5 5 4 3 2 1 1 2 4 4 2 1 0
85 86 87 85 80 75 72 68 65 61 56 48 36 24 21 22 21 23 30 38 40 33 27 25 23 17 11 7 6 6 8 8 8 7 4 2 1 2 4 5 4 2 1
73 75 77 74 68 64 60 57 56 52 45 37 30 25 26 28 25 22 26 34 37 32 25 23 21 19 13 8 6 6 9 12 11 10 6 3 1 2 3 5 5 3 1
64 65 64 60 55 53 50 45 44 42 35 28 24 23 26 28 24 19 19 24 28 29 27 23 21 18 14 9 7 7 10 12 11 7 5 4 3 3 3 4 5 3 1
54 55 53 48 44 40 38 36 34 32 29 25 21 20 22 23 23 20 17 14 16 20 22 23 22 18 12 9 8 9 10 10 8 5 4 4 5 5 4 4 4 3 1
38 39 40 39 34 27 26 26 25 23 22 21 19 17 16 17 19 20 17 12 10 12 14 20 24 20 13 8 6 8 9 8 7 7 7 7 6 6 5 4 3 1 0
25 25 28 29 25 19 17 18 17 15 15 16 14 12 11 11 13 14 14 13 12 11 11 15 20 20 16 10 5 5 6 7 8 9 10 8 6 5 5 5 3 1 0
18 20 21 21 20 16 13 14 13 12 13 13 11 9 10 11 9 9 10 11 13 13 10 10 14 18 17 13 7 3 3 6 8 8 8 7 5 4 4 5 4 2 1
14 14 15 16 17 16 13 12 12 13 15 14 12 12 13 12 8 7 8 9 11 11 8 8 10 14 16 13 8 4 2 3 5 6 5 4 3 2 3 4 4 3 2
10 10 10 12 13 13 13 12 13 16 17 17 19 20 18 14 10 7 6 7 8 7 8 8 9 13 15 13 8 4 3 2 2 3 2 2 1 0 1 2 3 4 4
7 7 8 9 9 9 10 11 12 17 19 21 26 28 26 22 17 12 8 6 6 8 12 12 11 12 14 12 7 3 3 2 1 1 1 1 0 0 0 0 1 2 3
5 5 6 6 6 5 6 8 10 14 17 20 25 30 31 31 28 23 17 10 7 10 15 15 13 14 16 15 9 3 2 2 1 1 2 1 0 0 0 0 0 1 1
3 3 3 4 4 4 4 6 8 10 13 16 19 23 28 32 32 29 25 18 12 11 13 17 20 23 25 21 10 4 3 2 0 1 1 1 0 0 0 0 0 0 1
2 2 1 1 3 3 3 3 3 5 8 12 14 17 22 25 26 27 27 22 16 13 14 23 33 38 35 23 9 6 6 2 0 0 0 0 0 0 0 0 0 0 1
3 2 1 1 2 3 2 1 0 2 4 7 9 11 15 19 20 20 21 20 17 16 18 28 42 47 39 21 8 7 6 2 0 0 0 0 0 0 0 0 0 0 0
3 2 2 1 1 2 2 1 0 0 1 3 5 6 9 13 15 15 15 15 16 18 20 25 37 45 39 24 12 8 4 1 0 0 0 0 0 0 0 0 0 0 0
4 4 4 2 1 1 2 1 0 0 0 1 1 2 4 8 10 11 11 11 13 17 20 22 28 35 35 28 20 11 5 1 0 0 0 0 0 0 0 0 0 0 0
4 5 5 4 2 1 2 2 1 1 0 0 0 1 2 5 7 8 8 8 9 13 19 20 20 23 27 27 22 12 5 2 1 0 0 0 0 0 0 0 0 0 0
2 3 4 4 3 1 1 2 3 2 0 0 0 0 1 2 4 5 5 7 8 11 15 16 16 17 20 21 16 8 3 2 1 0 0 0 0 0 0 0 0 0 0
1 1 2 3 3 2 1 1 3 2 1 0 0 0 0 1 1 1 2 4 7 9 10 11 13 14 14 12 9 4 2 1 1 0 0 0 0 0 0 0 0 0 0
0 1 1 1 2 1 0 0 1 2 2 1 1 1 0 0 0 0 0 2 3 5 6 7 8 10 9 7 5 3 2 1 0 0 0 0 0 0 0 0 0 0 0
0 0 0 0 0 0 0 0 1 2 2 2 2 1 0 0 0 1 1 0 1 1 2 3 5 6 6 5 4 3 2 1 0 0 0 0 0 0 0 0 0 0 0
0 0 0 0 0 0 0 0 0 1 1 1 1 1 1 1 1 1 1 1 0 0 0 1 2 3 4 3 2 3 3 2 0 0 0 0 0 0 0 0 0 0 0
0 0 0 0 0 0 0 0 0 0 0 1 1 0 1 1 1 1 1 1 1 0 0 0 0 1 1 1 1 2 2 2 1 0 0 0 0 0 0 0 0 0 0
0 0 0 0 0 0 0 0 0 0 0 1 1 1 0 1 0 0 0 0 1 0 0 0 0 0 0 0 0 0 1 2 2 1 0 0 0 0 0 0 0 0 0

GEFSMA_con_probscp_078.txt.gz
Probability
22 23 24 26 34 45 53 53 47 44 42 36 26 18 12 8 4 1 1 2 6 16 27 31 25 18 14 12 9 5 3 2 1 0 0 0 0 0 0 0 0 0 0
28 27 27 28 32 40 46 47 43 37 33 28 21 17 13 10 6 3 1 1 4 13 24 29 27 20 14 12 10 7 4 3 2 1 0 0 0 0 0 0 0 0 0
30 28 24 22 24 29 32 33 31 26 23 19 16 16 15 13 10 6 3 1 2 9 18 24 25 21 15 11 10 8 5 4 3 1 1 0 0 0 0 0 0 0 0
24 21 15 12 13 17 18 19 18 17 15 15 14 15 17 15 10 6 4 3 2 6 13 18 20 19 15 11 9 7 5 3 3 2 1 0 0 0 0 0 0 0 0
16 12 8 6 7 8 10 11 11 11 10 10 10 12 13 12 7 5 4 3 2 4 9 11 12 13 12 11 10 8 6 5 3 2 1 1 1 1 0 0 0 0 0
8 5 3 3 3 4 6 7 7 6 6 5 5 6 7 7 5 3 3 2 1 2 4 5 7 7 7 9 10 9 9 7 4 2 2 2 2 2 1 0 0 0 0
3 2 1 1 1 2 3 4 4 4 4 3 3 4 4 5 5 2 2 1 0 1 2 3 4 5 5 7 8 8 8 7 5 3 3 3 3 2 1 0 0 0 0
1 1 1 0 0 1 1 2 2 3 3 3 2 2 2 4 4 2 0 0 0 1 3 4 5 5 5 7 7 7 6 7 6 5 3 3 3 2 1 0 0 0 0
0 0 0 0 0 0 0 0 1 1 2 1 1 1 1 3 3 1 0 0 1 1 2 4 5 4 4 6 6 5 5 7 7 6 5 4 3 1 0 0 0 0 0
0 0 0 0 0 0 0 0 0 0 0 0 0 0 0 1 1 0 0 0 0 0 0 2 3 3 3 3 3 2 2 5 6 6 6 4 3 1 0 0 0 0 0
0 0 0 0 0 0 0 0 0 0 0 0 0 0 0 0 0 0 0 0 0 0 0 1 3 3 2 1 1 0 0 2 3 4 5 4 3 2 1 1 1 0 0
0 0 0 0 0 0 0 0 0 0 0 0 0 0 0 0 0 0 0 0 0 0 0 0 1 2 1 0 0 0 0 0 1 1 3 4 4 3 3 2 2 1 0
0 0 0 0 0 0 0 0 0 0 0 0 0 0 0 0 0 0 0 0 0 0 0 0 0 0 0 0 0 0 0 0 0 0 1 3 3 3 2 2 1 1 1
0 0 0 0 0 0 0 0 0 0 0 0 0 0 0 0 0 0 0 0 0 0 0 0 0 0 0 0 0 0 0 0 0 0 0 1 2 1 1 1 0 0 0
0 0 0 0 0 0 0 0 0 0 0 0 0 0 0 0 0 0 0 0 0 0 0 0 0 0 0 0 0 0 1 0 0 0 0 0 0 0 0 0 0 0 0
0 0 0 0 0 0 0 0 0 0 0 0 0 0 0 0 0 0 0 0 0 0 0 0 0 0 0 0 0 0 0 0 0 0 0 0 0 0 0 0 0 0 0
0 0 0 0 0 0 0 0 0 0 0 0 0 0 0 0 0 0 0 0 0 0 0 1 1 0 0 0 0 0 0 0 0 0 0 0 0 0 0 0 0 0 0
0 0 0 0 0 0 0 0 0 0 0 0 0 0 0 0 0 0 0 0 0 0 1 2 2 1 0 0 0 0 0 0 0 0 0 0 0 0 0 0 0 0 0
0 0 0 0 0 0 0 0 0 0 0 0 0 0 0 0 0 0 0 0 0 0 1 2 3 2 1 0 0 0 0 0 0 0 0 0 0 0 0 0 0 0 0
0 0 0 0 0 0 0 0 0 0 0 0 0 0 0 0 0 0 0 0 0 0 1 3 4 2 1 1 0 0 0 0 0 0 0 0 0 0 0 0 0 0 0
0 0 0 0 0 0 0 0 0 0 0 0 0 0 0 0 0 0 0 0 0 0 1 3 4 2 1 1 0 0 0 0 0 0 0 0 0 0 0 0 0 0 0
0 0 0 0 0 0 0 0 0 0 0 0 0 0 0 0 0 0 0 0 0 0 0 2 3 1 1 1 0 0 0 0 0 0 0 0 0 0 0 0 0 0 0
0 0 0 0 0 0 0 0 0 0 0 0 0 0 0 0 0 0 0 0 0 0 0 0 1 0 0 0 0 0 0 0 0 0 0 0 0 0 0 0 0 0 0
0 0 0 0 0 0 0 0 0 0 0 0 0 0 0 0 0 0 0 0 0 0 0 0 0 0 0 0 0 0 0 0 0 0 0 0 0 0 0 0 0 0 0
0 0 0 0 0 0 0 0 0 0 0 0 0 0 0 0 0 0 0 0 0 0 0 0 0 0 0 0 0 0 0 0 0 0 0 0 0 0 0 0 0 0 0
0 0 0 0 0 0 0 0 0 0 0 0 0 0 0 0 0 0 0 0 0 0 0 0 0 0 0 0 0 0 0 0 0 0 0 0 0 0 0 0 0 0 0

GEFSMA_con_probscp_084.txt.gz
Probability
17 18 18 15 13 11 12 13 13 11 12 17 20 18 14 11 10 9 6 4 2 1 0 1 2 3 5 6 6 5 3 1 0 0 0 0 0 0 0 0 0 0 0
16 17 17 15 12 11 11 12 13 13 14 18 19 18 14 11 9 9 7 5 3 2 1 3 6 7 6 6 6 7 5 3 1 0 0 0 0 0 0 0 0 0 0
14 15 14 13 11 9 9 9 11 12 12 13 13 11 10 9 7 7 7 6 4 3 3 6 9 11 9 7 5 6 7 5 3 1 0 0 0 0 0 0 0 0 0
10 10 10 9 7 6 6 7 8 7 7 6 5 4 6 7 5 4 6 6 5 4 4 7 10 12 10 7 5 6 8 7 4 2 1 0 1 1 1 0 0 0 0
4 4 5 5 4 3 3 4 4 4 4 3 3 3 5 6 4 3 4 5 5 5 4 6 10 11 9 7 8 10 10 8 5 3 1 0 1 2 1 0 0 0 0
1 1 2 2 1 1 1 1 2 2 3 3 3 4 5 5 4 3 2 4 5 5 5 6 9 11 10 9 9 11 11 9 6 4 3 1 1 1 1 0 0 0 0
0 0 0 0 0 0 0 0 0 1 1 2 3 4 5 4 3 3 3 3 5 6 6 6 8 10 11 10 8 7 8 9 7 6 5 3 1 0 0 0 0 0 0
0 0 0 0 0 0 0 0 0 0 0 1 2 3 3 2 2 3 3 4 5 6 6 5 6 8 10 12 9 6 7 8 8 8 6 5 2 0 0 0 0 0 0
0 0 0 0 0 0 0 0 0 0 0 0 1 2 1 0 1 2 3 3 3 4 5 4 3 5 8 12 11 8 6 6 8 8 7 6 4 1 0 0 0 0 0
0 0 0 0 0 0 0 0 0 0 0 0 0 0 0 0 0 1 2 1 1 1 3 3 3 4 6 10 11 8 3 4 5 5 7 8 6 3 1 0 0 0 0
0 0 0 0 0 0 0 0 0 0 0 0 0 0 0 0 0 0 0 0 0 0 1 3 4 6 6 8 8 5 1 1 2 3 6 9 9 6 4 1 0 0 0
0 0 0 0 0 0 0 0 0 0 0 0 0 0 0 0 0 0 0 0 0 0 1 2 4 6 7 7 6 3 0 0 0 1 5 10 11 9 7 3 1 0 0
0 0 0 0 0 0 0 0 0 0 0 0 0 0 0 0 0 0 0 0 0 0 0 1 1 3 5 6 5 3 1 0 0 0 3 8 10 8 6 4 2 0 0
0 0 0 0 0 0 0 0 0 0 0 0 0 0 0 0 0 0 0 0 0 0 0 0 0 1 4 5 4 3 3 1 0 0 1 4 5 4 3 3 2 0 0
0 0 0 0 0 0 0 0 0 0 0 0 0 0 0 0 0 0 0 0 0 0 0 0 0 1 3 3 1 2 3 2 0 0 0 1 1 1 1 1 1 0 0
0 0 0 0 0 0 0 0 0 0 0 0 0 0 0 0 0 0 0 0 0 0 0 0 0 0 1 1 0 1 2 2 1 0 0 0 0 0 0 0 0 0 0
0 0 0 0 0 0 0 0 0 0 0 0 0 0 0 0 0 0 0 0 0 0 0 0 0 0 0 0 0 0 1 2 2 1 0 0 0 0 0 0 0 0 0
0 0 0 0 0 0 0 0 0 0 0 0 0 0 0 0 0 0 0 0 0 0 0 0 0 0 0 0 0 0 1 1 1 1 0 0 0 0 0 0 0 0 0
0 0 0 0 0 0 0 0 0 0 0 0 0 0 0 0 0 0 0 0 0 0 0 0 0 0 0 0 0 0 0 0 0 0 0 0 0 0 0 0 0 0 0
0 0 0 0 0 0 0 0 0 0 0 0 0 0 0 0 0 0 0 0 0 0 0 0 0 0 0 0 0 0 0 0 0 0 0 0 0 0 0 0 0 0 0
0 0 0 0 0 0 0 0 0 0 0 0 0 0 0 0 0 0 0 0 0 0 0 0 0 0 0 0 0 0 0 0 0 0 0 0 0 0 0 0 0 0 0
0 0 0 0 0 0 0 0 0 0 0 0 0 0 0 0 0 0 0 0 0 0 0 0 0 0 0 0 0 0 0 0 0 0 0 0 0 0 0 0 0 0 0
0 0 0 0 0 0 0 0 0 0 0 0 0 0 0 0 0 0 0 0 0 0 0 0 0 1 0 0 0 0 1 0 0 0 0 0 0 0 0 0 0 0 0
0 0 0 0 0 0 0 0 0 0 0 0 0 0 0 0 0 0 0 0 0 0 0 0 0 0 0 0 0 0 0 0 0 0 0 0 0 0 0 0 0 0 0
0 0 0 0 0 0 0 0 0 0 0 0 0 0 0 0 0 0 0 0 0 0 0 0 0 0 0 0 0 0 0 0 0 0 0 0 0 0 0 0 0 0 0
0 0 0 0 0 0 0 0 0 0 0 0 0 0 0 0 0 0 0 0 0 0 0 0 0 0 0 0 0 0 0 0 0 0 0 0 0 0 0 0 0 0 0

GEFSMA_con_probscp_090.txt.gz
Probability
19 22 26 27 25 20 19 18 20 25 27 24 18 13 10 10 12 14 20 23 18 12 11 10 6 4 6 7 7 7 6 4 4 3 2 0 0 0 0 0 0 0 0
17 19 23 24 23 22 22 20 21 25 27 25 21 15 12 12 13 15 19 23 19 13 13 13 10 8 7 7 8 10 10 8 6 6 3 1 1 1 0 0 0 0 0
14 15 17 17 17 18 19 18 19 22 24 23 20 15 13 14 15 16 20 25 23 18 16 15 16 16 13 9 9 13 15 15 14 11 7 4 2 1 1 0 0 0 0
11 11 12 11 10 10 11 12 14 17 19 18 16 13 11 13 15 16 18 22 24 25 23 20 21 23 20 14 11 14 18 20 20 16 11 7 3 1 1 1 0 0 0
7 8 8 7 6 6 6 7 9 13 15 14 12 11 9 10 12 12 11 12 15 22 25 24 26 28 25 20 19 21 23 25 23 19 15 11 5 1 1 1 0 0 0
4 5 5 5 5 5 5 5 7 11 12 10 9 9 8 7 8 8 6 6 7 12 17 22 30 34 30 28 30 33 34 31 25 19 17 14 9 3 1 0 0 0 0
3 3 3 3 3 4 4 4 6 8 9 7 6 6 6 5 4 3 2 4 5 8 11 18 31 41 39 33 34 39 40 37 29 22 20 19 14 8 3 1 0 0 0
3 2 1 2 2 2 2 3 5 5 5 4 3 2 2 2 2 2 2 3 6 10 12 16 26 39 43 41 37 37 39 37 30 24 24 24 20 15 9 3 0 0 0
3 2 1 1 1 0 0 1 3 3 3 3 2 1 2 2 3 3 3 4 6 9 10 11 16 25 36 46 47 39 35 34 30 26 25 25 22 17 12 7 3 1 0
2 1 0 0 0 0 0 0 1 1 3 3 2 2 2 2 3 4 3 3 4 5 5 6 8 13 23 40 48 39 30 30 31 29 24 22 19 16 14 10 6 4 2
1 0 0 0 0 0 0 0 0 1 2 3 2 1 1 1 2 2 1 1 3 4 4 4 6 9 14 27 36 28 22 23 26 27 24 21 20 18 16 12 8 5 5
0 0 0 0 0 0 0 0 0 1 2 3 2 0 0 0 1 1 1 1 2 5 6 7 7 7 11 18 21 17 13 15 15 17 19 21 22 23 20 14 8 6 6
0 0 0 0 0 0 0 0 0 1 2 2 1 0 0 0 1 2 1 0 1 3 5 7 8 8 10 14 15 11 8 7 6 6 10 15 20 21 21 16 11 8 7
0 0 0 0 0 0 0 0 0 0 1 1 0 0 0 0 1 1 1 1 1 2 3 6 10 11 12 14 11 9 8 4 1 1 3 7 10 13 14 13 9 7 5
0 0 0 0 0 0 0 0 0 0 0 0 0 0 0 0 0 1 2 2 1 1 2 6 11 12 13 11 7 9 11 5 0 0 1 2 3 4 5 5 4 3 2
0 0 0 0 0 0 0 0 0 0 0 0 0 0 0 0 0 1 1 2 1 0 1 5 9 11 12 10 9 13 13 6 1 0 0 0 0 0 0 0 0 0 0
0 0 0 0 0 0 0 0 0 0 0 0 0 0 0 0 0 0 0 1 1 0 1 3 5 7 9 10 13 16 12 8 5 2 0 0 0 0 0 0 0 0 0
0 0 0 0 0 0 0 0 0 0 0 0 0 0 0 0 0 0 0 0 0 0 1 2 3 4 6 8 11 13 11 10 9 3 0 0 0 0 0 0 0 0 0
0 0 0 0 0 0 0 0 0 0 0 0 0 0 0 0 0 0 0 0 0 0 1 2 3 4 5 5 6 8 12 14 10 4 0 0 0 0 0 0 0 0 0
0 0 0 0 0 0 0 0 0 0 0 0 0 0 0 0 0 0 0 0 0 0 2 3 3 4 5 5 5 8 13 14 10 6 3 2 1 1 1 0 0 0 0
0 0 0 0 0 0 0 0 0 0 0 0 0 0 0 0 0 0 0 0 0 0 2 3 3 2 4 5 6 7 9 10 9 8 7 7 7 7 4 2 0 0 0
0 0 0 0 0 0 0 0 0 0 0 0 0 0 0 0 0 0 0 0 0 0 1 2 2 1 2 5 6 6 5 6 8 10 10 10 12 11 7 3 1 0 0
0 0 0 0 0 0 0 0 0 0 0 0 0 0 0 0 0 0 0 0 0 0 0 1 1 1 1 3 5 7 7 9 9 10 10 9 9 8 5 2 0 0 0
0 0 0 0 0 0 0 0 0 0 0 0 0 0 0 0 0 0 0 0 0 0 0 0 0 0 0 1 3 7 11 11 10 8 7 6 4 2 1 0 0 0 0
0 0 0 0 0 0 0 0 0 0 0 0 0 0 0 0 0 0 0 0 0 0 0 0 0 0 0 0 2 5 9 9 6 4 4 3 2 2 1 0 0 0 0
0 0 0 0 0 0 0 0 0 0 0 0 0 0 0 0 0 0 0 0 0 0 0 0 0 0 0 0 1 2 5 5 3 2 2 2 2 2 1 0 0 0 0

GEFSMA_con_probscp_096.txt.gz
Probability
48 42 32 24 19 17 17 16 12 10 12 12 13 10 8 10 10 13 26 44 55 54 48 43 36 28 21 16 11 9 10 10 8 6 3 1 0 0 0 0 0 0 0
37 35 30 23 18 16 17 16 12 9 11 13 13 11 10 11 11 13 22 38 50 53 50 48 44 37 30 25 20 17 15 13 11 8 5 3 1 1 0 0 0 0 0
24 24 23 19 15 14 16 16 14 12 13 13 11 11 11 12 14 15 19 28 39 45 47 49 52 50 44 37 32 29 26 22 18 13 9 6 4 2 1 0 0 0 0
14 14 15 14 12 12 14 16 16 16 15 13 10 10 10 12 15 16 17 22 30 37 40 45 51 54 51 45 41 39 37 34 30 22 15 10 7 5 2 0 0 0 0
8 8 9 10 10 11 13 16 17 16 14 11 8 7 7 10 11 12 13 16 23 31 35 40 49 53 50 47 47 47 47 46 42 34 23 16 11 8 5 2 0 0 0
6 6 8 8 9 11 14 15 15 13 10 8 5 3 3 6 9 10 10 11 17 23 28 36 47 50 47 47 49 52 55 57 54 46 35 26 19 14 9 5 2 0 0
7 8 8 8 8 10 11 11 9 7 6 6 4 2 1 3 7 10 11 11 13 17 21 29 39 44 45 44 44 50 58 64 65 61 53 43 32 23 16 9 3 1 0
11 12 12 9 6 6 5 4 3 2 2 3 2 1 1 2 5 8 12 15 15 16 18 23 31 37 39 37 35 41 53 61 67 72 70 60 47 34 22 13 5 1 0
14 15 15 11 5 3 1 1 0 0 0 1 1 1 1 3 4 6 8 11 14 17 17 18 22 28 31 30 28 30 40 50 60 71 74 68 57 42 28 19 11 4 1
9 10 13 11 7 2 0 0 0 0 0 0 1 2 2 3 3 4 4 5 8 14 16 14 15 20 24 25 25 23 25 33 46 60 68 67 59 46 34 27 20 9 3
3 4 9 12 9 3 0 0 0 0 0 0 1 1 2 3 3 3 3 3 4 8 11 11 11 14 18 20 19 16 14 18 26 39 51 55 54 47 40 33 25 14 7
1 3 7 10 8 3 0 0 0 0 0 0 0 0 1 2 3 3 3 3 3 5 7 9 10 11 14 15 12 9 9 8 9 17 27 36 41 42 39 33 25 17 11
1 3 4 5 4 1 0 0 0 0 0 0 0 0 0 1 3 3 3 3 3 3 3 5 7 8 9 11 8 5 5 3 2 4 9 16 24 30 32 28 23 18 15
1 1 1 1 1 0 0 0 0 0 0 0 0 0 0 1 2 3 3 3 2 1 1 2 4 6 8 8 6 4 3 2 0 1 2 4 10 16 20 20 17 14 12
0 0 0 0 0 0 0 0 0 0 0 0 0 0 0 0 1 3 3 2 1 1 0 1 2 5 7 5 4 6 5 2 0 0 0 0 2 6 10 11 9 6 5
0 0 0 0 0 0 0 0 0 0 0 0 0 0 0 0 1 2 3 1 1 1 1 0 1 4 5 3 4 7 7 3 0 0 0 0 0 1 3 4 3 1 1
0 0 0 0 0 0 0 0 0 0 0 0 0 0 0 0 1 2 2 1 1 1 1 0 0 1 2 2 3 5 5 3 1 0 0 0 0 0 0 0 0 0 0
0 0 0 0 0 0 0 0 0 0 0 0 0 0 0 0 0 1 1 0 0 0 0 0 0 0 0 1 1 1 2 2 1 0 0 0 0 0 0 0 0 0 0
0 0 0 0 0 0 0 0 0 0 0 0 0 0 0 0 0 0 0 0 0 0 0 0 0 0 0 0 0 0 0 1 1 1 0 0 0 0 0 0 0 0 0
0 0 0 0 0 0 0 0 0 0 0 0 0 0 0 0 0 0 0 0 0 0 0 0 0 0 0 0 0 0 0 1 2 2 1 0 0 0 0 0 0 0 0
0 0 0 0 0 0 0 0 0 0 0 0 0 0 0 0 0 0 0 0 0 0 0 0 0 0 0 0 0 0 0 1 2 3 3 1 0 0 0 0 0 0 0
0 0 0 0 0 0 0 0 0 0 0 0 0 0 0 0 0 0 0 0 0 0 0 0 0 0 0 0 0 0 0 0 1 3 2 1 0 0 0 0 0 0 0
0 0 0 0 0 0 0 0 0 0 0 0 0 0 0 0 0 0 0 0 0 0 0 0 0 0 0 0 0 0 0 0 1 1 1 0 0 1 0 0 0 0 0
0 0 0 0 0 0 0 0 0 0 0 0 0 0 0 0 0 0 0 0 0 0 0 0 0 0 0 0 0 0 0 0 0 0 0 0 0 0 0 0 0 0 0
1 0 0 0 0 0 0 0 0 0 0 0 0 0 0 0 0 0 0 0 0 0 0 0 0 0 0 0 0 0 0 0 0 0 0 0 0 0 0 0 0 0 0
1 1 0 0 0 0 0 0 0 0 0 0 0 0 0 0 0 0 0 0 0 0 0 0 0 0 0 0 0 0 0 0 0 0 0 0 0 0 0 0 0 0 0

GEFSMA_con_probscp_102.txt.gz
Probability
2 4 4 4 4 3 3 2 2 2 2 2 3 2 1 0 0 0 0 1 4 10 16 17 15 12 10 6 3 3 3 2 1 1 0 0 0 0 0 0 0 0 0
2 3 3 2 2 2 2 1 1 1 2 3 3 1 0 0 0 0 0 1 3 9 15 16 16 16 14 10 5 4 4 3 3 2 1 1 0 0 0 0 0 0 0
3 4 3 1 1 1 1 0 0 0 1 2 2 1 0 0 0 0 0 0 2 6 10 13 15 17 17 15 11 8 7 7 7 5 3 2 1 1 0 0 0 0 0
2 3 4 2 1 0 0 0 0 0 0 1 1 0 0 0 0 0 0 0 0 2 4 7 11 13 14 13 12 12 12 13 14 11 7 4 3 3 2 0 0 0 0
1 2 2 1 1 0 0 0 0 0 0 0 0 0 0 0 0 0 0 0 0 0 1 3 7 8 7 6 8 12 15 18 20 19 13 7 5 4 3 1 0 0 0
0 1 1 0 0 0 0 0 0 0 0 0 0 0 0 0 0 0 0 0 0 0 0 1 3 4 3 3 4 8 12 17 21 22 19 14 9 6 3 1 0 0 0
0 0 0 0 0 0 0 0 0 0 0 0 0 0 0 0 0 0 0 0 0 0 0 0 1 1 2 2 3 5 9 13 18 21 22 19 14 8 4 2 1 0 0
0 0 0 0 0 0 0 0 0 0 0 0 0 0 0 0 0 0 0 0 0 0 0 0 0 0 2 3 3 5 10 14 16 19 21 20 16 11 7 4 2 1 0
0 0 0 0 0 0 0 0 0 0 0 0 0 0 0 0 0 0 0 0 0 0 0 0 0 1 2 3 4 5 10 14 14 15 16 17 16 15 13 9 5 3 1
0 0 0 0 0 0 0 0 0 0 0 0 0 0 0 0 0 0 0 0 0 0 0 0 0 0 1 1 2 4 6 9 10 10 12 15 19 21 19 15 10 6 4
0 0 0 0 0 0 0 0 0 0 0 0 0 0 0 0 0 0 0 0 0 0 0 0 0 0 0 0 0 2 3 3 5 7 9 14 20 24 24 19 13 8 5
0 0 0 0 0 0 0 0 0 0 0 0 0 0 0 0 0 0 0 0 0 0 0 0 0 0 0 0 0 0 1 1 3 5 8 11 16 20 22 22 18 11 7
0 0 0 0 0 0 0 0 0 0 0 0 0 0 0 0 0 0 0 0 0 0 0 0 0 0 0 1 1 0 0 0 1 3 5 6 8 12 18 23 21 14 9
0 0 0 0 0 0 0 0 0 0 0 0 0 0 0 0 0 0 0 0 0 0 0 0 0 0 0 1 1 1 1 0 0 1 2 3 4 7 12 18 18 12 8
0 0 0 0 0 0 0 0 0 0 0 0 0 0 0 0 0 0 0 0 0 0 0 0 0 0 0 0 0 0 0 0 0 0 0 1 2 4 7 10 10 6 4
0 0 0 0 0 0 0 0 0 0 0 0 0 0 0 0 0 0 0 0 0 0 0 0 0 0 0 0 0 0 0 0 0 0 0 1 1 2 3 5 4 2 1
0 0 0 0 0 0 0 0 0 0 0 0 0 0 0 0 0 0 0 0 0 0 0 0 0 0 0 0 0 0 0 0 0 0 0 0 0 0 1 1 1 0 0
0 0 0 0 0 0 0 0 0 0 0 0 0 0 0 0 0 0 0 0 0 0 0 0 0 0 0 0 0 0 0 0 0 0 0 0 0 0 0 0 0 0 0
0 0 0 0 0 0 0 0 0 0 0 0 0 0 0 0 0 0 0 0 0 0 0 0 0 0 0 0 0 0 0 0 0 0 0 0 0 0 0 0 0 0 0
0 0 0 0 0 0 0 0 0 0 0 0 0 0 0 0 0 0 0 0 0 0 0 0 0 0 0 0 0 0 0 0 0 0 0 0 0 0 0 0 0 0 0
0 0 0 0 0 0 0 0 0 0 0 0 0 0 0 0 0 0 0 0 0 0 0 0 0 0 0 0 0 0 0 0 0 0 0 0 0 0 0 0 0 0 0
0 0 0 0 0 0 0 0 0 0 0 0 0 0 0 0 0 0 0 0 0 0 0 0 0 0 0 0 0 0 0 0 0 0 0 0 0 0 0 0 0 0 0
0 0 0 0 0 0 0 0 0 0 0 0 0 0 0 0 0 0 0 0 0 0 0 0 0 0 0 0 0 0 0 0 0 0 0 0 0 0 0 0 0 0 0
0 0 0 0 0 0 0 0 0 0 0 0 0 0 0 0 0 0 0 0 0 0 0 0 0 0 0 0 0 0 0 0 0 0 0 0 0 0 0 0 0 0 0
0 0 0 0 0 0 0 0 0 0 0 0 0 0 0 0 0 0 0 0 0 0 0 0 0 0 0 0 0 0 0 0 0 0 0 0 0 0 0 0 0 0 0
0 0 0 0 0 0 0 0 0 0 0 0 0 0 0 0 0 0 0 0 0 0 0 0 0 0 0 0 0 0 0 0 0 0 0 0 0 0 0 0 0 0 0

GEFSMA_con_probscp_108.txt.gz
Probability
0 0 0 0 0 1 2 2 1 0 0 0 0 0 0 0 0 0 1 1 1 2 5 5 3 1 0 0 1 0 0 0 0 1 0 0 0 0 0 0 0 0 0
1 0 0 0 0 0 1 2 1 0 0 0 0 0 0 0 0 0 0 0 0 1 3 4 3 1 1 1 1 1 1 1 1 1 1 1 0 0 0 0 0 0 0
1 0 0 0 0 0 0 1 1 0 0 0 0 0 0 0 0 0 0 0 0 0 1 2 2 2 2 1 1 2 2 2 2 2 2 2 1 0 0 0 0 0 0
1 0 0 0 0 0 0 0 0 0 0 0 0 0 0 0 0 0 0 0 0 0 0 1 2 3 2 1 1 2 2 3 3 3 3 3 2 1 1 1 0 0 0
0 0 0 0 0 0 0 0 0 0 0 0 0 0 0 0 0 0 0 0 0 0 0 1 2 2 2 3 3 2 1 2 3 3 3 2 3 4 5 3 1 1 0
0 0 0 0 1 0 0 0 0 0 0 0 0 0 0 0 0 0 0 0 0 0 0 0 1 1 2 4 4 3 2 3 4 3 3 2 3 6 7 5 3 2 1
0 0 0 0 0 0 0 0 0 0 0 0 0 0 0 0 0 0 0 0 0 0 0 0 0 1 2 3 3 3 3 5 5 4 4 3 3 6 8 7 5 4 2
0 0 0 0 0 0 0 0 0 0 0 0 0 0 0 0 0 0 0 0 0 0 0 0 0 1 2 3 2 2 3 5 5 5 6 6 6 9 11 9 7 6 5
0 0 0 0 0 0 0 0 0 0 0 0 0 0 0 0 0 0 0 0 0 0 0 0 0 0 1 2 2 2 2 4 5 6 7 8 10 12 14 11 9 9 9
0 0 0 0 0 0 0 0 0 0 0 0 0 0 0 0 0 0 0 0 0 0 0 0 0 0 0 1 2 1 1 2 4 5 7 9 10 12 13 11 10 9 9
0 0 0 0 0 0 0 0 0 0 0 0 0 0 0 0 0 0 0 0 0 0 0 0 0 0 0 0 0 0 0 0 1 3 6 9 10 10 10 10 10 10 10
0 0 0 0 0 0 0 0 0 0 0 0 0 0 0 0 0 0 0 0 0 0 0 0 0 0 0 0 0 0 0 0 0 1 4 7 9 9 9 10 12 12 12
0 0 0 0 0 0 0 0 0 0 0 0 0 0 0 0 0 0 0 0 0 0 0 0 0 0 0 0 0 0 0 0 0 0 1 3 4 6 8 9 11 12 12
0 0 0 0 0 0 0 0 0 0 0 0 0 0 0 0 0 0 0 0 0 0 0 0 0 0 0 0 0 0 1 1 0 0 0 0 1 2 4 6 8 9 9
0 0 0 0 0 0 0 0 0 0 0 0 0 0 0 0 0 0 0 0 0 0 0 0 0 0 0 0 0 0 1 1 0 0 0 0 0 0 1 2 4 6 6
0 0 0 0 0 0 0 0 0 0 0 0 0 0 0 0 0 0 0 0 0 0 0 0 0 0 0 0 0 0 0 1 0 0 0 0 0 0 0 0 1 2 3
0 0 0 0 0 0 0 0 0 0 0 0 0 0 0 0 0 0 0 0 0 0 0 0 0 0 0 0 0 0 0 1 0 0 0 0 0 0 0 0 0 0 1
0 0 0 0 0 0 0 0 0 0 0 0 0 0 0 0 0 0 0 0 0 0 0 0 0 0 0 0 0 0 0 0 0 0 0 0 0 0 0 0 0 0 0
0 0 0 0 0 0 0 0 0 0 0 0 0 0 0 0 0 0 0 0 0 0 0 0 0 0 0 0 0 0 0 0 0 0 0 0 0 0 0 0 0 0 0
0 0 0 0 0 0 0 0 0 0 0 0 0 0 0 0 0 0 0 0 0 0 0 0 0 0 0 0 0 0 0 0 0 0 0 0 0 0 0 0 0 0 0
0 0 0 0 0 0 0 0 0 0 0 0 0 0 0 0 0 0 0 0 0 0 0 0 0 0 0 0 0 0 0 0 0 0 0 0 0 0 0 0 0 0 0
0 0 0 0 0 0 0 0 0 0 0 0 0 0 0 0 0 0 0 0 0 0 0 0 0 0 0 0 0 0 0 0 0 0 0 0 0 0 0 0 0 0 0
0 0 0 0 0 0 0 0 0 0 0 0 0 0 0 0 0 0 0 0 0 0 0 0 0 0 0 0 0 0 0 0 0 0 0 0 0 0 0 0 0 0 0
0 0 0 0 0 0 0 0 0 0 0 0 0 0 0 0 0 0 0 0 0 0 0 0 0 0 0 0 0 0 0 0 0 0 0 0 0 0 0 0 0 0 0
0 0 0 0 0 0 0 0 0 0 0 0 0 0 0 0 0 0 0 0 0 0 0 0 0 0 0 0 0 0 0 0 0 0 0 0 0 0 0 0 0 0 0
0 0 0 0 0 0 0 0 0 0 0 0 0 0 0 0 0 0 0 0 0 0 0 0 0 0 0 0 0 0 0 0 0 0 0 0 0 0 0 0 0 0 0

GEFSMA_con_probscp_114.txt.gz
Probability
5 4 4 4 2 0 0 1 0 0 0 0 0 0 0 1 1 1 1 2 2 1 1 1 1 0 0 0 0 0 1 1 1 0 0 0 0 0 0 0 0 0 0
2 3 3 2 1 0 0 1 0 0 0 0 0 0 0 0 0 0 1 2 2 1 0 0 1 1 1 0 1 1 2 2 1 1 1 0 0 0 0 0 0 0 0
2 2 2 1 0 0 0 0 0 0 0 0 0 0 0 0 0 0 0 1 1 1 0 0 1 3 2 1 2 3 3 2 2 2 2 1 0 0 0 0 0 0 0
2 2 2 1 1 1 0 0 0 0 0 0 0 0 0 0 0 0 0 1 2 2 2 2 3 4 3 1 1 2 2 3 3 3 3 2 2 1 0 0 0 0 0
1 1 2 2 2 2 1 0 0 0 0 0 0 0 0 0 0 0 0 1 2 2 3 4 5 4 3 2 2 1 1 3 4 4 3 3 3 2 1 0 1 1 1
0 0 1 3 3 3 2 1 0 0 0 0 0 0 0 0 0 0 0 0 1 1 2 3 4 3 2 3 3 3 2 3 5 5 5 6 5 4 2 1 1 2 2
0 0 1 2 3 3 3 1 1 1 0 0 0 0 0 0 0 0 0 0 0 0 0 1 2 2 2 3 4 4 3 3 5 7 8 10 10 9 5 3 2 3 3
0 0 1 2 3 3 3 3 2 1 0 0 0 0 0 0 0 0 0 0 0 0 0 0 0 1 2 3 4 4 4 4 6 9 11 13 15 14 9 6 3 3 3
0 0 0 1 2 2 2 2 2 1 0 0 0 0 0 0 0 0 0 0 0 0 0 0 0 0 1 3 4 4 5 5 8 11 15 16 16 15 11 8 5 2 2
0 0 0 0 1 1 1 1 1 0 0 0 0 0 0 0 0 0 0 0 0 0 0 0 0 0 0 1 3 4 4 4 6 10 15 16 15 13 12 9 6 3 3
0 0 0 0 0 0 0 0 0 0 0 0 0 0 0 0 0 0 0 0 0 0 0 0 0 0 0 0 1 2 2 1 3 5 9 12 12 11 10 8 6 4 5
0 0 0 0 0 0 0 0 0 0 0 0 0 0 0 0 0 0 0 0 0 0 0 0 0 0 0 0 0 0 0 0 1 1 3 4 6 7 7 6 5 6 7
0 0 0 0 0 0 0 0 0 0 0 0 0 0 0 0 0 0 0 0 0 0 0 0 0 0 0 0 0 0 0 0 0 0 0 1 2 4 4 4 5 6 7
0 0 0 0 0 0 0 0 0 0 0 0 0 0 0 0 0 0 0 0 0 0 0 0 0 0 0 0 0 0 0 0 0 0 0 0 0 1 1 2 3 5 6
0 0 0 0 0 0 0 0 0 0 0 0 0 0 0 0 0 0 0 0 0 0 0 0 0 0 0 0 0 0 0 0 0 0 0 0 0 0 0 0 1 2 3
0 0 0 0 0 0 0 0 0 0 0 0 0 0 0 0 0 0 0 0 0 0 0 0 0 0 0 0 0 0 0 0 0 0 0 0 0 0 0 0 0 1 2
0 0 0 0 0 0 0 0 0 0 0 0 0 0 0 0 0 0 0 0 0 0 0 0 0 0 0 0 0 0 0 0 0 0 0 0 0 0 0 0 0 1 1
0 0 0 0 0 0 1 1 1 1 0 0 0 0 0 0 0 0 0 0 0 0 0 0 0 0 0 0 0 0 0 0 0 0 0 0 0 0 0 0 0 0 0
0 0 0 0 0 0 1 2 2 2 1 0 0 0 0 0 0 0 0 0 0 0 0 0 0 0 0 0 0 0 0 1 0 0 0 0 0 0 0 0 0 0 0
0 0 0 0 0 0 1 3 3 3 2 1 0 0 0 0 0 0 0 0 0 0 0 0 0 0 0 0 0 0 0 0 0 0 0 0 1 1 0 0 0 0 0
0 0 0 0 1 0 1 2 2 2 2 2 1 1 0 0 0 0 0 0 0 0 0 0 0 0 0 0 0 0 0 0 0 0 0 1 2 2 1 0 0 0 0
1 0 0 0 0 0 0 1 1 1 1 2 2 2 1 0 0 0 0 0 0 0 0 0 0 0 0 0 0 0 0 0 0 0 0 1 2 2 1 0 0 0 0
4 3 2 2 1 0 0 0 0 0 0 1 2 2 1 1 0 0 0 0 0 0 0 0 0 0 0 0 0 0 0 0 0 0 0 1 1 1 1 0 0 0 0
9 8 6 6 5 2 0 0 0 0 0 0 1 1 1 1 0 0 0 0 0 0 0 0 0 0 0 0 0 0 0 0 0 0 0 0 0 0 0 0 0 0 0
13 12 10 9 9 6 2 0 0 0 0 0 0 0 1 1 0 0 0 0 0 0 0 0 0 0 0 0 0 0 0 0 0 0 0 0 0 0 0 0 0 0 0
15 14 11 10 11 8 3 0 0 0 0 0 0 0 0 0 0 0 0 0 0 0 0 0 0 0 0 0 0 0 0 0 0 0 0 0 0 0 0 0 0 0 0

GEFSMA_con_probscp_120.txt.gz
Probability
8 9 7 5 3 2 1 1 0 0 0 0 0 0 0 0 1 3 4 3 2 1 1 0 0 1 2 2 1 1 1 1 0 0 0 0 0 0 0 0 0 0 0
8 8 6 4 3 1 1 1 0 0 0 0 0 0 0 0 1 2 3 3 1 1 1 1 1 2 2 2 2 2 1 1 0 0 0 0 0 0 0 0 0 0 0
6 5 3 2 1 0 0 0 0 0 0 0 0 0 0 0 0 1 1 1 0 0 1 2 2 2 2 2 2 3 3 3 1 0 0 0 0 0 0 0 0 0 0
4 3 2 1 0 0 0 0 0 0 0 0 0 0 0 0 0 0 0 0 0 0 1 1 1 1 2 2 2 3 4 5 5 2 1 0 0 0 0 0 0 0 0
3 2 1 0 1 2 1 1 1 1 0 0 0 0 0 0 0 0 0 0 0 0 0 0 0 1 2 2 2 2 3 5 6 4 2 1 0 1 1 0 0 0 0
1 0 0 1 2 3 3 2 2 2 1 1 0 0 0 0 0 0 0 0 0 0 0 0 0 0 1 1 3 3 3 3 4 4 2 1 1 1 0 0 0 0 0
1 0 0 1 2 3 3 4 4 3 2 2 1 0 0 0 0 0 0 0 0 0 0 1 0 0 0 1 2 3 3 2 3 5 4 2 1 1 0 0 0 0 0
1 1 1 1 2 3 4 5 5 3 2 3 2 1 0 0 0 0 0 0 0 0 0 0 0 0 0 1 2 2 2 2 3 5 6 5 4 2 1 1 1 0 0
1 1 1 1 1 3 4 5 5 4 3 2 2 1 0 0 0 0 0 0 0 0 0 0 0 0 0 1 1 1 2 2 1 2 5 7 6 4 3 3 3 2 1
1 1 1 1 1 2 3 3 3 3 3 1 1 0 0 0 0 0 0 0 0 0 0 0 0 0 0 0 0 0 1 1 0 1 3 5 6 4 4 4 4 3 3
1 1 2 2 1 1 1 1 1 2 2 1 0 0 0 0 0 0 0 0 0 0 0 0 0 0 0 0 0 0 0 0 0 0 1 3 4 4 4 4 5 5 4
2 2 2 2 1 0 0 0 0 1 1 0 0 0 0 0 0 0 0 0 0 0 0 0 0 0 0 0 0 0 0 0 0 0 0 1 2 3 3 3 4 5 4
2 2 2 2 1 0 0 0 0 0 0 0 0 0 0 0 0 0 0 0 0 0 0 0 0 0 0 0 0 0 0 0 0 0 0 0 1 1 2 2 3 3 3
2 3 2 1 0 0 0 0 0 0 0 0 0 0 0 0 0 0 0 0 0 0 0 0 0 1 0 0 0 0 0 0 0 0 0 0 0 0 1 1 1 1 1
4 3 2 1 0 1 1 1 0 0 0 0 0 0 0 0 0 0 0 0 0 0 0 0 0 0 0 0 0 0 0 0 0 0 0 0 0 0 0 0 0 0 0
6 4 2 1 2 2 2 1 0 0 0 0 0 0 0 0 0 0 0 0 0 0 0 0 0 0 0 0 0 0 0 0 0 0 0 0 0 0 0 0 0 0 0
6 4 2 2 3 3 3 2 0 0 1 1 1 1 1 0 0 0 0 0 0 0 0 0 0 0 0 0 0 0 0 0 0 0 0 0 0 0 0 0 0 0 0
4 3 3 3 3 3 3 3 2 1 1 2 3 2 2 2 2 1 0 0 0 0 0 0 0 0 0 0 0 0 0 0 0 0 0 0 0 0 0 0 0 0 0
5 4 4 4 4 5 5 5 5 4 3 4 3 3 3 3 3 2 1 1 0 0 0 0 0 0 0 0 0 0 0 0 0 0 0 0 0 0 0 0 0 0 0
8 7 7 7 8 8 7 6 6 5 5 5 4 4 3 3 3 3 2 2 1 0 0 0 0 0 0 0 0 0 0 0 0 0 0 0 0 0 0 0 0 0 0
11 10 10 12 12 9 5 4 4 4 4 5 4 4 3 2 2 2 2 1 1 0 0 0 0 0 0 0 0 0 0 0 0 0 0 0 0 0 0 0 0 0 0
20 19 18 18 16 9 3 1 2 3 4 3 3 3 2 1 1 1 0 0 0 0 0 0 0 0 0 0 0 0 0 0 0 0 0 0 0 0 0 0 0 0 0
36 34 29 24 20 13 4 0 0 2 2 3 4 5 3 1 0 0 0 0 0 0 0 0 0 0 0 0 0 0 0 0 0 0 0 0 0 0 0 0 0 0 0
50 48 41 34 28 19 7 1 0 0 1 1 3 5 5 3 1 1 0 0 0 0 0 0 0 0 0 0 0 0 0 0 1 0 0 0 0 0 0 0 0 0 0
59 55 48 44 40 27 11 2 0 1 2 2 3 4 4 3 1 0 0 1 1 1 1 0 0 0 0 0 0 0 0 0 0 0 0 0 0 0 0 0 0 0 0
62 58 52 49 47 35 15 2 0 2 4 5 5 4 3 2 1 0 1 2 2 2 2 1 0 0 0 0 0 0 0 0 0 0 0 0 0 0 0 0 0 0 0